Location: ?????????
(54.7630°N, 39.4991°E)
Time: 01:57:48
(UTC+00:00)

Cosmos 1758 Rocket - Pass Details

Date: 14 April 2026
Orbit: 595 x 628 km, 82.5° (Epoch: 20 May)

Event Time Altitude Azimuth Distance (km) Brightness Sun altitude
Rises 22:16:23 0° 346° (NNW) 2,854 7.9 -24.6°
Reaches altitude 10° 22:18:36 10° 345° (NNW) 1,947 6.9 -24.5°
Enters shadow 22:22:27 64° 304° (NW) 665 3.7 -24.3°
